Regional Weather Roundup
Issued by NWS Cleveland, OH

Home | Current Version | Previous Version | Text Only | Print | Product List | Glossary Off
Versions: 1 2 3 4 5 6 7 8 9 10 11 12 13 14 15 16 17 18 19 20 21 22 23 24 25 26 27 28 29 30 31 32 33 34 35 36 37 38 39 40 41 42 43 44 45 46 47 48 49 50

000
ASUS41 KCLE 051910
RWRCLE
OHIO REGIONAL WEATHER ROUNDUP
NATIONAL WEATHER SERVICE CLEVELAND, OH
300 PM EDT SUN JUL 05 2015

NOTE: "FAIR" INDICATES FEW OR NO CLOUDS BELOW 12,000 FEET WITH NO
SIGNIFICANT WEATHER AND/OR OBSTRUCTIONS TO VISIBILITY.

OHZ001>008-015>018-024>027-034-035-043-044-052000-
   NORTHWEST OHIO

CITY           SKY/WX    TMP DP  RH WIND       PRES   REMARKS
DEFIANCE       MOSUNNY   81  55  40 VRB3      30.10F
FINDLAY        PTSUNNY   80  57  45 VRB3      30.09F
TOLEDO EXPRESS MOSUNNY   81  53  37 SE3       30.10F
TOLEDO EXEC    MOSUNNY   82  58  43 NE7       30.11F
LIMA           CLOUDY    79  60  52 VRB5      30.10F
$$

OHZ009>014-019>023-028>033-038-089-052000-
   NORTHEAST OHIO

CITY           SKY/WX    TMP DP  RH WIND       PRES   REMARKS
CLE-HOPKINS    PTSUNNY   81  48  31 E9        30.14S
CLE-LAKEFRONT  PTSUNNY   75  62  64 N8        30.11S
CUY CO. ARPT   MOSUNNY   82  59  44 SE5       30.13F
LORAIN-ELYRIA  PTSUNNY   78  54  43 CALM      30.12F
ASHTABULA      MOSUNNY   80  58  46 E6        30.14F
AKRON-CANTON   PTSUNNY   79  56  45 E6        30.13F
WOOSTER        MOSUNNY   78  57  48 VRB3      30.13F
MANSFIELD      MOSUNNY   78  58  49 SE8       30.13S
YOUNGSTOWN     MOSUNNY   79  53  40 VRB6      30.13F
$$

OHZ042-051>053-060>062-070>072-077>081-052000-
  SOUTHWEST OHIO

CITY           SKY/WX    TMP DP  RH WIND       PRES   REMARKS
CINC-COVINGTON CLOUDY    77  59  53 E7        30.09S
CINC-LUNKEN    CLOUDY    78  62  57 NE3       30.09S
HAMILTON       CLOUDY    80  60  50 VRB6      30.10F
DAYTON         CLOUDY    77  60  55 CALM      30.11F
WRIGHT-PAT AFB PTSUNNY   79  59  49 VRB2      30.09F
DAYTON GENERAL CLOUDY    79  62  56 VRB7      30.09F
WILMINGTON     CLOUDY    75  60  59 E6        30.09F
$$

OHZ036-037-039>041-045>050-054>059-063>069-073>076-082>088-052000-
  CENTRAL AND SOUTHEAST OHIO

CITY           SKY/WX    TMP DP  RH WIND       PRES   REMARKS
COLUMBUS       CLOUDY    79  61  53 NE6       30.10S
OSU AIRPORT    CLOUDY    78  57  48 NE5       30.10F
BOLTON FIELD   SUNNY     79  63  57 CALM      30.10F
RICKENBACK AFB CLOUDY    77  62  58 E7        30.08F
NEWARK         PTSUNNY   79  62  56 VRB3      30.09F
MARION         PTSUNNY   78  58  49 E5        30.11F
LANCASTER      CLOUDY    78  62  57 E5        30.10S
ZANESVILLE     NOT AVBL
NEW PHILLY     MOSUNNY   79  62  56 CALM      30.11F
$$



USA.gov is the U.S. government's official web portal to all federal, state and local government web resources and services.